Regional Weather Roundup
Issued by NWS Midland/Odessa, TX

Skip options and go directly to product.
Home | Oldest Version | Previous Version | Current Version | All | Text Only | Save Text | Print | Product List | Glossary On

Skip product version selection by date and time.   
467
ASUS44 KMAF 300801
RWRMAF
MIDLAND AREA WEATHER ROUNDUP
NATIONAL WEATHER SERVICE MIDLAND TX
300 AM CDT SUN AUG 30 2015

...IN SOUTHWEST TEXAS AND SOUTHEAST NEW MEXICO...

CITY           SKY/WX    TMP DP  RH WIND       PRES   REMARKS
ALPINE         CLEAR     61  49  66 CALM      30.22S
ANDREWS        FAIR      66  58  73 S6        30.12F
ARTESIA        CLEAR     68  64  88 CALM      30.15F
BIG SPRING     PTCLDY    63  54  73 CALM      30.10F
CARLSBAD       CLEAR     69  52  54 SW6       30.11F
DRYDEN           N/A     79  57  46 VRB3      30.01F
FORT STOCKTON  CLEAR     69  54  58 E3        30.09F
GUAD PASS      CLEAR     63  51  65 NE17      30.24F
HOBBS            N/A     63  61  94 CALM      30.16S
MARFA          CLEAR     59  48  67 N8        30.19F
MIDLAND AIRPK  CLEAR     69  58  68 CALM      30.10S
MIDLAND INTL   CLEAR     65  59  81 CALM      30.09F
ODESSA         CLEAR     69  54  58 SE6       30.11F
PECOS          CLEAR     69  55  60 NE6       30.08F
PRESIDIO       NOT AVBL
SEMINOLE       CLEAR     61  54  75 CALM      30.14F
SNYDER         PTCLDY    69  55  60 W3        30.08S
WINK           CLEAR     69  59  70 E6        30.07F
$$
...OTHER STATIONS IN TEXAS...

CITY           SKY/WX    TMP DP  RH WIND       PRES   REMARKS
ABILENE        MOCLDY    71  64  78 W5        30.04R
AMARILLO       CLEAR     66  58  75 SW3       30.14F
AUSTIN         CLOUDY    76  66  71 S5        30.00F
BROWNSVILLE    CLEAR     76  74  93 CALM      29.95F
CORPUS CHRISTI PTCLDY    71  61  70 CALM      29.97F
DALLAS FTW     CLOUDY    79  65  62 S5        29.95F
DEL RIO        PTCLDY    80  55  42 E8        29.97S
EL PASO        PTCLDY    76  54  46 E5        30.12S
HOUSTON INT    MOCLDY    71  66  84 CALM      29.99F
LUBBOCK        PTCLDY    62  56  80 W5        30.12F
SAN ANGELO     CLOUDY    75  58  55 S6        30.03F
SAN ANTONIO    CLOUDY    78  65  63 S12       30.01F
WACO           CLOUDY    81  64  56 S9        29.98F
WICHITA FALLS  NOT AVBL
$$
...OTHER LOCATIONS IN NEW MEXICO...

CITY           SKY/WX    TMP DP  RH WIND       PRES   REMARKS
ALAMAGORDO     CLEAR     66  57  72 N9        30.16S
ALBUQUERQUE    CLEAR     73  50  44 CALM      30.24F
CANNON AFB     CLEAR     61  54  76 NW2       30.18F
CLOVIS         CLEAR     61  55  82 NW6       30.19F
HOLLOMAN AFB   CLEAR     69  58  67 NE6       30.14S
ROSWELL        CLEAR     65  60  84 CALM      30.15F
RUIDOSO        CLEAR     59  52  77 MISG      30.36S
SANTA FE       CLEAR     62  49  62 SE6       30.31F
TRUTH OR CONSE PTCLDY    72  54  53 CALM      30.18F
TUCUMCARI      CLEAR     63  55  75 W7        30.16F
$$

USA.gov is the U.S. government's official web portal to all federal, state and local government web resources and services.